"Pseudo-MPEC" for C3LXHQ1

Created 2023 Mar 26 14:22:04 UT using Find_Orb

Click here for an explanation of pseudo-MPECs

 
 Astrometry: 
     C3LXHQ1*1C2023 03 25.28787511 10 18.865+37 14 06.90   ~3P7b 19.67GVNEOCP703
     C3LXHQ1 1C2023 03 25.29322011 10 17.454+37 13 27.55   ~3P7b 19.29GVNEOCP703
     C3LXHQ1 1C2023 03 25.29856811 10 16.007+37 12 47.02   ~3P7b 19.85GVNEOCP703
     C3LXHQ1 1C2023 03 25.30385411 10 14.513+37 12 08.75   ~3P7b       VNEOCP703
     C3LXHQ1 1C2023 03 25.44489911 09 40.560+36 53 34.50   ~3PB7       VNEOCP703
     C3LXHQ1 1C2023 03 25.44548511 09 40.460+36 53 29.00   ~3PB7       VNEOCP703
     C3LXHQ1 hC2023 03 25Olw])cNVk.b!_I%rmW$-mafcVATJf:W;,TRiqE=iaN1wG$.%1@Q?L01
     C3LXHQ1 hC2023 03 25vLM!8gXSMf_7fbT/Is]Zp^9%cJ[)VZ('5uoG(B3h_J.G%=JR_H_xL01
     C3LXHQ1 hC2023 03 25'b`Xt;D/j9Vr5i:tmHuL?FXt_'3]b59KurAogeXWX4)nWDh%FQ@0L01
     C3LXHQ1 hC2023 03 25:#kM`-byAstrometry28KTal?redacted;@#x.-l@+4E+RPKJ:eML01
     C3LXHQ1 hC2023 03 25_8gmUA%GFY.9S(+7#Q1.eVnr`?B!_p`Q7-`X3-%FSx4^i85U0nMqL01
     C3LXHQ1 KC2023 03 26.00265811 08 29.94 +35 43 32.2    ~3Q17 19.2 GXNEOCP595
     C3LXHQ1 KC2023 03 26hIr'?2X1@?i-LH-BfaAUEdm5eGjup=l^fe`QwKK:2clickCc??)ZG15
     C3LXHQ1 KC2023 03 26.01093211 08 28.07 +35 42 25.4    ~3Q17 18.9 GXNEOCP595
     C3LXHQ1 KC2023 03 26`^ZK+oj-_e#V2;vPZ6[Wa,NVK?8jr+aR0FGhereS`?0QKm\+)==EG15
     C3LXHQ1 KC2023 03 26$E!Bp@Z:vSE7_U^-/kGOVZ'1pgn4^98):4S4Im19H;H`X,JabhuCG15
     C3LXHQ1 KC2023 03 26.02281411 08 25.35 +35 40 48.5    ~3Q17 19.5 GXNEOCP595
     C3LXHQ1 KC2023 03 26yl0mH-r+!,^6UR!1E#MGd)%JS@2AUt.@hhBO:N*2@0uu=ye=,Dg_204
     C3LXHQ1 KC2023 03 26ey''.!i(C1KLKSWK?Q[^'WUY@Ce?d%*=,e%a.._for?3ejfBo+N+204
     C3LXHQ1 KC2023 03 26CUS5us2;lv@v9;AIBmFf3h\spg%)o:XCLM5Hmf;M[4o+:O'bunuP204
     C3LXHQ1 KC2023 03 26nhqenT4.21[:!]-Ay53*a'3iic]?'g3o^R=8gL$x-SjtC;w0y^8fH21
     C3LXHQ1 KC2023 03 26M[Od0explanationQhZ5@w'-I,`0$9U^4RyecRIUsQ6H;k3mYG\SH21
     C3LXHQ1 KC2023 03 26Dd;HJ!2NnAg\tfG7sKllV\nq'[`(!n'?/)i0;qX7^;1%RAnxw*FoH21
     C3LXHQ1 KC2023 03 262(gL0h@ka)tP96L'`Al?]nq%IFpK2x99b[3TC=NM0O\Ej#7/;_[@V21
     C3LXHQ1 KC2023 03 26!*vThRo';*;IM2QUBp*YoN6a8QFMKH1$f$lMt3Wi6_!h:w8xV-'mV21
     C3LXHQ1 KC2023 03 26n?xolJq#LuC*gW;)h^@M9.A7FtG-!nV@mKfqBCwqg'8]8Tf8,.RnV21
     C3LXHQ1 KC2023 03 26OC:#j$9Xx,)dW%bTv)[4fMBR-59;A-EdH.$MG\%-?jx,rN5-UZ_-V21

Station data:
(204) Schiaparelli Observatory  (N45.867930 E8.770800)  Italy.  Observer L.
   Buzzi. 0.60-m f/4.64 Newtonian + CCD0.84-m f/3.5 reflector + CCD.
(595) Farra d'Isonzo  (N45.915731 E13.525780)  Italy.  Observers S. Aschi, E.
   Pettarin, G. Panterotto. Measurers S. Aschi, E. Pettarin. 0.40-m f/5.15
   reflector + CCD.
(703) Catalina Sky Survey  (N32.417003 W110.732640)  US/Arizona.  Observers
   T. A. Pruyne, B. M. Africano, E. J. Christensen, G. A. Farneth, D. C.
   Fuls, A. R. Gibbs, A. D. Grauer, H. Gröller, J. A. Johnson, R. A.
   Kowalski, S. M. Larson, G. J. Leonard, D. Rankin, R. L. Seaman, F. C.
   Shelly, K. W. Wierzchoś. 0.68 m Schmidt + 10K CCD.
(G15) Magroforte Observatory, Alessandria  (N44.772005 E9.118300)  Italy.
   Observer A. De Pieri. 0.25-m f/6.7 Schmidt-Cassegrain + CCD.
(H21) Astronomical Research Observatory, Westfield  (N39.483054 W87.968270)
   US/Illinois.  Observer R. Holmes. Measurers S. Foglia, L. Buzzi, T.
   Linder, R. Holmes. 0.76-m f/3.0 astrograph + CCD0.81-m f/4.0 astrograph +
   CCD0.61-m f/4.5 astrograph + CCD0.40-m f/5.32 astrograph + CCD.
(L01) Višnjan Observatory, Tičan  (N45.290897 E13.749300)  Croatia.
   Observers K. Korlević, D. Pujagic, V. Dobos. Measurers D. Pujagic, K.
   Korlević. 1.0-m f/2.9 reflector + CCD.
(V21) Cewanee Observatory at DSNM  (N31.946619 W108.897690)  US/New Mexico.

Orbital elements:  C3LXHQ1
   Perihelion 2023 Mar 29.08015 +/- 0.142 TT =  1:55:25 (JD 2460032.58015)
Epoch 2023 Mar 26.0 TT = JDT 2460029.5   Earth MOID: 0.0208      AutoNEOCP
M 357.38678326 +/- 0.11             (J2000 ecliptic)
n   0.84840482 +/- 0.000348         Peri.  173.21312 +/- 0.15
a   1.10509758 +/- 0.000302         Node    13.77710 +/- 0.013
e   0.0766925 +/- 0.000261          Incl.    4.64024 +/- 0.006
P   1.16/424.32d           H 25.38  G  0.15   U  7.4
q 1.02034486 +/- 2.92e-5    Q 1.18985031 +/- 0.000613
From 27 observations 2023 Mar. 25-26 (25.1 hr); mean residual 0".29
Residuals in arcseconds: 
230325 703  .03-  .31-    230325 L01  .25-  .23+    230326 204  .06+  .25+    
230325 703  .41+  .08+    230325 L01  .13-  .14+    230326 204  .33-  .01+    
230325 703  .39+  .52-    230326 595  .32-  .09+    230326 H21  .07-  .09+    
230325 703  .45-  .85+    230326 G15  .76+  .03+    230326 H21  .13-  .02-    
230325 703  .32-  .27+    230326 595  .30+  .11+    230326 H21  .01+  .05+    
230325 703  .12-  .43-    230326 G15  .12+  .91-    230326 V21  .19+  .24-    
230325 L01  .18-  .09+    230326 G15  .06-  .25+    230326 V21  .28-  .08+    
230325 L01  .16-  .05+    230326 595  .24+  .31-    230326 V21  .21+  .07-    
230325 L01  .10+  .07-    230326 204  .01+  .14+    230326 V21  .16-  .14+    

Ephemerides (geocentric):
Date (UTC) HH   RA             Dec           delta  r     elong  mag " sig PA
---- --------  ------------   ------------  ------ ------ -----  --- --------
2023 03 26 14  11 07 15.746   +34 28 53.06  .02987 1.0204 139.7 19.4 .107   2
2023 03 26 15  11 07 09.868   +34 23 19.77  .02983 1.0204 139.7 19.4 .129   5
2023 03 26 16  11 07 03.996   +34 17 45.53  .02980 1.0204 139.7 19.4 .152   7
2023 03 26 17  11 06 58.131   +34 12 10.34  .02976 1.0204 139.8 19.4 .176   8
2023 03 26 18  11 06 52.272   +34 06 34.19  .02973 1.0204 139.8 19.4 .201   9
2023 03 26 19  11 06 46.419   +34 00 57.08  .02969 1.0204 139.9 19.4 .228  10
2023 03 26 20  11 06 40.573   +33 55 19.02  .02966 1.0204 139.9 19.4 .257  11
2023 03 26 21  11 06 34.733   +33 49 39.99  .02962 1.0204 139.9 19.4 .286  12
2023 03 26 22  11 06 28.899   +33 44 00.01  .02959 1.0204 140.0 19.4 .317  12
2023 03 26 23  11 06 23.073   +33 38 19.07  .02955 1.0204 140.0 19.4 .349  12
2023 03 27 00  11 06 17.252   +33 32 37.16  .02952 1.0204 140.1 19.4 .382  13
2023 03 27 01  11 06 11.438   +33 26 54.30  .02948 1.0204 140.1 19.4 .417  13
2023 03 27 02  11 06 05.631   +33 21 10.47  .02945 1.0204 140.2 19.4 .453  13
2023 03 27 03  11 05 59.831   +33 15 25.68  .02941 1.0204 140.2 19.4 .491  13
2023 03 27 04  11 05 54.037   +33 09 39.93  .02938 1.0204 140.2 19.4 .529  13
2023 03 27 05  11 05 48.250   +33 03 53.21  .02934 1.0204 140.3 19.4 .569  14
2023 03 27 06  11 05 42.469   +32 58 05.53  .02931 1.0204 140.3 19.4 .611  14
2023 03 27 07  11 05 36.695   +32 52 16.88  .02928 1.0204 140.4 19.4 .654  14
2023 03 27 08  11 05 30.928   +32 46 27.27  .02924 1.0204 140.4 19.3 .698  14
2023 03 27 09  11 05 25.168   +32 40 36.69  .02921 1.0204 140.4 19.3 .743  14
2023 03 27 10  11 05 19.414   +32 34 45.15  .02917 1.0204 140.5 19.3 .790  14
2023 03 27 11  11 05 13.667   +32 28 52.63  .02914 1.0204 140.5 19.3 .839  14
2023 03 27 12  11 05 07.928   +32 22 59.15  .02911 1.0204 140.6 19.3 .888  14
2023 03 27 13  11 05 02.195   +32 17 04.71  .02907 1.0204 140.6 19.3 .939  14
2023 03 27 14  11 04 56.469   +32 11 09.29  .02904 1.0204 140.7 19.3 0.99  14
2023 03 27 15  11 04 50.749   +32 05 12.91  .02901 1.0204 140.7 19.3 1.05  14
2023 03 27 16  11 04 45.037   +31 59 15.55  .02897 1.0204 140.7 19.3 1.10  14
2023 03 27 17  11 04 39.332   +31 53 17.23  .02894 1.0204 140.8 19.3 1.16  14
2023 03 27 18  11 04 33.634   +31 47 17.94  .02891 1.0204 140.8 19.3 1.22  14
2023 03 27 19  11 04 27.942   +31 41 17.68  .02887 1.0204 140.9 19.3 1.28  14
2023 03 27 20  11 04 22.258   +31 35 16.45  .02884 1.0204 140.9 19.3 1.34  14
2023 03 27 21  11 04 16.581   +31 29 14.24  .02881 1.0204 140.9 19.3 1.40  14
2023 03 27 22  11 04 10.911   +31 23 11.07  .02878 1.0204 141.0 19.3 1.46  14
2023 03 27 23  11 04 05.248   +31 17 06.93  .02874 1.0204 141.0 19.3 1.53  14
2023 03 28 00  11 03 59.592   +31 11 01.81  .02871 1.0204 141.1 19.3 1.60  14
2023 03 28 01  11 03 53.944   +31 04 55.73  .02868 1.0204 141.1 19.3 1.67  14
2023 03 28 02  11 03 48.302   +30 58 48.67  .02865 1.0204 141.2 19.3 1.74  13
2023 03 28 03  11 03 42.668   +30 52 40.64  .02861 1.0204 141.2 19.3 1.81  13
2023 03 28 04  11 03 37.041   +30 46 31.64  .02858 1.0204 141.2 19.3 1.88  13
2023 03 28 05  11 03 31.421   +30 40 21.67  .02855 1.0204 141.3 19.3 1.96  13
2023 03 28 06  11 03 25.808   +30 34 10.73  .02852 1.0204 141.3 19.3 2.03  13
2023 03 28 07  11 03 20.203   +30 27 58.82  .02849 1.0203 141.4 19.3 2.11  13
2023 03 28 08  11 03 14.605   +30 21 45.94  .02846 1.0203 141.4 19.3 2.19  13
2023 03 28 09  11 03 09.015   +30 15 32.08  .02842 1.0203 141.4 19.3 2.27  13
2023 03 28 10  11 03 03.431   +30 09 17.26  .02839 1.0203 141.5 19.3 2.35  13
2023 03 28 11  11 02 57.855   +30 03 01.46  .02836 1.0203 141.5 19.3 2.44  13
2023 03 28 12  11 02 52.287   +29 56 44.70  .02833 1.0203 141.6 19.2 2.52  13
2023 03 28 13  11 02 46.726   +29 50 26.96  .02830 1.0203 141.6 19.2 2.61  13